Retour au catalogue

COSMOS 1375 DEB

ActifLEO
NORAD 16205·DEBRIS·🇷🇺 Russia

Lancé Jun 6, 1982 depuis Plesetsk Cosmodrome

Loading…

Prochains Passages (prochaines 24 heures)

TLE

FraisSource: Space-Track

Époque: Sep 14, 2026, 02:43 UTC

1 16205U 82055G   26257.11361400 -.00000152  00000-0 -65769-4 0  9999
2 16205  65.8247 300.0990 0054343   5.2533  25.1620 13.80443740 50124

Suivez COSMOS 1375 DEB en temps réel avec AllMySat

Download on the App Store